| time (UTC) | temp F | wind direction | speed MPH | gust MPH | rain 1hr in | rain 24hr in | rain mn in | humidity % | barometer mb |
| 20260505153256 | 66 | 214 | 4.0 | 4.0 | 0.00 | 0.00 | 0.00 | 64 | 1002.1 |
| 20260505152753 | 65 | 127 | 2.0 | 2.0 | 0.00 | 0.00 | 0.00 | 65 | 1002.2 |
| 20260505152249 | 67 | 260 | 5.0 | 6.0 | 0.00 | 0.00 | 0.00 | 62 | 1002.2 |
| 20260505151744 | 66 | 239 | 2.0 | 3.0 | 0.00 | 0.00 | 0.00 | 64 | 1002.4 |
| 20260505151242 | 65 | 137 | 2.0 | 2.0 | 0.00 | 0.00 | 0.00 | 65 | 1002.3 |
| 20260505150738 | 64 | 267 | 3.0 | 3.0 | 0.00 | 0.00 | 0.00 | 64 | 1002.3 |
| 20260505150236 | 64 | 214 | 2.0 | 3.0 | 0.00 | 0.00 | 0.00 | 64 | 1002.3 |
| 20260505140200 | 66 | 270 | 3.0 | 4.0 | 0.00 | 0.00 | 0.00 | 59 | 1001.9 |
| 20260505130124 | 61 | 293 | 4.0 | 4.0 | 0.00 | 0.00 | 0.00 | 66 | 1002.4 |
| 20260505124613 | 60 | 111 | 1.0 | 2.0 | 0.00 | 0.00 | 0.00 | 69 | 1002.3 |
| 20260505124109 | 59 | 161 | 1.0 | 2.0 | 0.00 | 0.00 | 0.00 | 70 | 1002.2 |
| 20260505123606 | 59 | 132 | 1.0 | 1.0 | 0.00 | 0.00 | 0.00 | 71 | 1002.4 |
| 20260505123103 | 58 | 241 | 2.0 | 3.0 | 0.00 | 0.00 | 0.00 | 72 | 1002.4 |
| 20260505122559 | 57 | 266 | 2.0 | 3.0 | 0.00 | 0.00 | 0.00 | 73 | 1002.6 |
| 20260505122056 | 57 | 260 | 2.0 | 3.0 | 0.00 | 0.00 | 0.00 | 75 | 1002.5 |
| 20260505121553 | 56 | 212 | 2.0 | 3.0 | 0.00 | 0.00 | 0.00 | 74 | 1002.7 |
| 20260505121050 | 56 | 227 | 3.0 | 3.0 | 0.00 | 0.00 | 0.00 | 77 | 1002.5 |
| 20260505120546 | 55 | 225 | 2.0 | 2.0 | 0.00 | 0.00 | 0.00 | 76 | 1002.5 |
| 20260505120042 | 55 | 253 | 3.0 | 4.0 | 0.00 | 0.00 | 0.00 | 78 | 1002.5 |
| 20260505115536 | 54 | 198 | 2.0 | 3.0 | 0.00 | 0.00 | 0.00 | 77 | 1002.6 |
| 20260505115034 | 54 | 146 | 1.0 | 1.0 | 0.00 | 0.00 | 0.00 | 79 | 1002.6 |
| 20260505114531 | 53 | 136 | 1.0 | 2.0 | 0.00 | 0.00 | 0.00 | 79 | 1002.8 |
| 20260505114027 | 53 | 264 | 2.0 | 3.0 | 0.00 | 0.00 | 0.00 | 80 | 1002.5 |
| 20260505113524 | 52 | 277 | 2.0 | 2.0 | 0.00 | 0.00 | 0.00 | 81 | 1002.7 |
| 20260505113020 | 51 | 124 | 1.0 | 1.0 | 0.00 | 0.00 | 0.00 | 82 | 1002.6 |
| 20260505112516 | 51 | 82 | 0.0 | 1.0 | 0.00 | 0.00 | 0.00 | 83 | 1002.5 |
| 20260505112014 | 51 | 355 | 1.0 | 2.0 | 0.00 | 0.00 | 0.00 | 83 | 1002.5 |
| 20260505111508 | 50 | 212 | 1.0 | 1.0 | 0.00 | 0.00 | 0.00 | 83 | 1002.6 |
| 20260505111005 | 50 | 241 | 2.0 | 2.0 | 0.00 | 0.00 | 0.00 | 83 | 1002.5 |
| 20260505110501 | 50 | 249 | 1.0 | 2.0 | 0.00 | 0.00 | 0.00 | 84 | 1003.0 |
| 20260505101932 | 48 | 12 | 1.0 | 1.0 | 0.00 | 0.00 | 0.00 | 87 | 1002.8 |
| 20260505101427 | 48 | 40 | 1.0 | 1.0 | 0.00 | 0.00 | 0.00 | 85 | 1002.8 |
| 20260505100923 | 47 | 219 | 1.0 | 2.0 | 0.00 | 0.00 | 0.00 | 88 | 1002.8 |
| 20260505100420 | 47 | 40 | 0.0 | 0.0 | 0.00 | 0.00 | 0.00 | 87 | 1002.7 |
| 20260505095915 | 48 | 15 | 1.0 | 1.0 | 0.00 | 0.00 | 0.00 | 85 | 1002.9 |
| 20260505095413 | 47 | 221 | 2.0 | 2.0 | 0.00 | 0.00 | 0.00 | 87 | 1002.6 |
| 20260505094909 | 47 | 26 | 0.0 | 1.0 | 0.00 | 0.00 | 0.00 | 88 | 1002.7 |
| 20260505094406 | 46 | 43 | 1.0 | 1.0 | 0.00 | 0.00 | 0.00 | 88 | 1002.5 |
| 20260505093901 | 47 | 229 | 1.0 | 2.0 | 0.00 | 0.00 | 0.00 | 87 | 1002.6 |
| 20260505093359 | 48 | 37 | 1.0 | 1.0 | 0.00 | 0.00 | 0.00 | 84 | 1002.6 |
| 20260505092856 | 48 | 9 | 1.0 | 1.0 | 0.00 | 0.00 | 0.00 | 85 | 1002.5 |
| 20260505092354 | 46 | 8 | 1.0 | 1.0 | 0.00 | 0.00 | 0.00 | 87 | 1002.7 |
| 20260505091851 | 47 | 25 | 1.0 | 1.0 | 0.00 | 0.00 | 0.00 | 86 | 1002.4 |
| 20260505091349 | 46 | 358 | 2.0 | 2.0 | 0.00 | 0.00 | 0.00 | 87 | 1002.6 |
| 20260505090847 | 46 | 23 | 0.0 | 1.0 | 0.00 | 0.00 | 0.00 | 88 | 1002.8 |
| 20260505090345 | 48 | 34 | 1.0 | 1.0 | 0.00 | 0.00 | 0.00 | 84 | 1002.7 |
| 20260505085841 | 50 | 22 | 1.0 | 2.0 | 0.00 | 0.00 | 0.00 | 80 | 1002.7 |
| 20260505085340 | 47 | 264 | 3.0 | 3.0 | 0.00 | 0.00 | 0.00 | 84 | 1002.7 |
| 20260505084837 | 47 | 88 | 0.0 | 1.0 | 0.00 | 0.00 | 0.00 | 85 | 1002.7 |
| 20260505084335 | 47 | 31 | 1.0 | 1.0 | 0.00 | 0.00 | 0.00 | 86 | 1002.6 |
| 20260505083832 | 47 | 311 | 1.0 | 2.0 | 0.00 | 0.00 | 0.00 | 85 | 1002.9 |
| 20260505083330 | 46 | 257 | 3.0 | 3.0 | 0.00 | 0.00 | 0.00 | 87 | 1002.8 |
| 20260505082826 | 46 | 256 | 3.0 | 3.0 | 0.00 | 0.00 | 0.00 | 88 | 1003.0 |
| 20260505082322 | 45 | 18 | 1.0 | 1.0 | 0.00 | 0.00 | 0.00 | 89 | 1002.9 |
| 20260505081819 | 45 | 40 | 1.0 | 1.0 | 0.00 | 0.00 | 0.00 | 89 | 1002.8 |
| 20260505081316 | 43 | 26 | 0.0 | 1.0 | 0.00 | 0.00 | 0.00 | 92 | 1003.0 |
| 20260505080813 | 44 | 350 | 2.0 | 2.0 | 0.00 | 0.00 | 0.00 | 90 | 1002.8 |
| 20260505080308 | 44 | 11 | 1.0 | 2.0 | 0.00 | 0.00 | 0.00 | 91 | 1002.8 |
| 20260505075804 | 45 | 135 | 1.0 | 1.0 | 0.00 | 0.00 | 0.00 | 88 | 1003.0 |
| 20260505075304 | 46 | 45 | 2.0 | 2.0 | 0.00 | 0.00 | 0.00 | 87 | 1002.8 |
| 20260505074758 | 45 | 16 | 1.0 | 1.0 | 0.00 | 0.00 | 0.00 | 89 | 1002.8 |
| 20260505074256 | 44 | 32 | 0.0 | 1.0 | 0.00 | 0.00 | 0.00 | 92 | 1002.9 |
| 20260505073753 | 44 | 355 | 1.0 | 1.0 | 0.00 | 0.00 | 0.00 | 92 | 1002.9 |
| 20260505073251 | 44 | 356 | 1.0 | 2.0 | 0.00 | 0.00 | 0.00 | 92 | 1002.7 |
| 20260505072747 | 44 | 357 | 1.0 | 2.0 | 0.00 | 0.00 | 0.00 | 91 | 1002.8 |
| 20260505072243 | 47 | 324 | 2.0 | 2.0 | 0.00 | 0.00 | 0.00 | 86 | 1003.0 |
| 20260505071739 | 48 | 11 | 1.0 | 1.0 | 0.00 | 0.00 | 0.00 | 83 | 1002.8 |
| 20260505071236 | 46 | 234 | 2.0 | 2.0 | 0.00 | 0.00 | 0.00 | 86 | 1002.8 |
| 20260505070734 | 46 | 345 | 0.0 | 1.0 | 0.00 | 0.00 | 0.00 | 86 | 1003.0 |
| 20260505070230 | 45 | 29 | 1.0 | 1.0 | 0.00 | 0.00 | 0.00 | 88 | 1002.9 |
| 20260505065726 | 49 | 53 | 1.0 | 1.0 | 0.00 | 0.00 | 0.00 | 82 | 1002.9 |
| 20260505065223 | 48 | 248 | 0.0 | 1.0 | 0.00 | 0.00 | 0.00 | 84 | 1003.0 |
| 20260505064720 | 49 | 15 | 1.0 | 1.0 | 0.00 | 0.00 | 0.00 | 81 | 1003.0 |
| 20260505064218 | 48 | 237 | 2.0 | 3.0 | 0.00 | 0.00 | 0.00 | 82 | 1003.0 |
| 20260505063715 | 47 | 43 | 0.0 | 0.0 | 0.00 | 0.00 | 0.00 | 86 | 1002.7 |
| 20260505063211 | 46 | 17 | 1.0 | 1.0 | 0.00 | 0.00 | 0.00 | 87 | 1002.7 |
| 20260505062707 | 46 | 344 | 2.0 | 2.0 | 0.00 | 0.00 | 0.00 | 88 | 1003.0 |
| 20260505062205 | 44 | 353 | 1.0 | 1.0 | 0.00 | 0.00 | 0.00 | 92 | 1002.6 |
| 20260505061701 | 45 | 317 | 2.0 | 2.0 | 0.00 | 0.00 | 0.00 | 90 | 1002.8 |
| 20260505061200 | 44 | 357 | 1.0 | 1.0 | 0.00 | 0.00 | 0.00 | 91 | 1002.9 |
| 20260505060657 | 44 | 352 | 2.0 | 2.0 | 0.00 | 0.00 | 0.00 | 91 | 1002.6 |
| 20260505060154 | 44 | 8 | 1.0 | 1.0 | 0.00 | 0.00 | 0.00 | 91 | 1002.9 |
| 20260505055649 | 45 | 355 | 1.0 | 1.0 | 0.00 | 0.00 | 0.00 | 90 | 1003.0 |
| 20260505055146 | 46 | 359 | 1.0 | 1.0 | 0.00 | 0.00 | 0.00 | 88 | 1002.9 |
| 20260505054643 | 47 | 30 | 1.0 | 1.0 | 0.00 | 0.00 | 0.00 | 86 | 1002.9 |
| 20260505054141 | 47 | 40 | 1.0 | 1.0 | 0.00 | 0.00 | 0.00 | 85 | 1002.9 |
| 20260505053639 | 48 | 40 | 1.0 | 1.0 | 0.00 | 0.00 | 0.00 | 81 | 1002.8 |
| 20260505053135 | 49 | 64 | 0.0 | 0.0 | 0.00 | 0.00 | 0.00 | 81 | 1002.8 |
| 20260505052632 | 49 | 89 | 0.0 | 0.0 | 0.00 | 0.00 | 0.00 | 80 | 1002.8 |
| 20260505052129 | 50 | 50 | 0.0 | 0.0 | 0.00 | 0.00 | 0.00 | 80 | 1002.7 |
| 20260505051626 | 51 | 43 | 1.0 | 1.0 | 0.00 | 0.00 | 0.00 | 76 | 1002.5 |
| 20260505051124 | 51 | 110 | 0.0 | 1.0 | 0.00 | 0.00 | 0.00 | 77 | 1002.6 |
| 20260505050622 | 51 | 73 | 0.0 | 1.0 | 0.00 | 0.00 | 0.00 | 76 | 1002.7 |
| 20260505050120 | 52 | 57 | 0.0 | 0.0 | 0.00 | 0.00 | 0.00 | 75 | 1002.6 |
| 20260505041549 | 50 | 26 | 1.0 | 1.0 | 0.00 | 0.00 | 0.00 | 82 | 1002.2 |
| 20260505041047 | 49 | 37 | 1.0 | 1.0 | 0.00 | 0.00 | 0.00 | 83 | 1002.4 |
| 20260505040544 | 49 | 28 | 0.0 | 1.0 | 0.00 | 0.00 | 0.00 | 84 | 1002.0 |
| 20260505040041 | 49 | 54 | 1.0 | 1.0 | 0.00 | 0.00 | 0.00 | 83 | 1002.1 |
| 20260505035537 | 49 | 43 | 1.0 | 2.0 | 0.00 | 0.00 | 0.00 | 84 | 1002.0 |
| 20260505035034 | 49 | 278 | 2.0 | 2.0 | 0.00 | 0.00 | 0.00 | 84 | 1002.1 |
| 20260505034530 | 49 | 33 | 1.0 | 2.0 | 0.00 | 0.00 | 0.00 | 84 | 1001.9 |
| 20260505034027 | 49 | 12 | 1.0 | 2.0 | 0.00 | 0.00 | 0.00 | 84 | 1001.9 |
| 20260505033524 | 49 | 36 | 1.0 | 1.0 | 0.00 | 0.00 | 0.00 | 84 | 1001.9 |
| 20260505033023 | 49 | 36 | 1.0 | 1.0 | 0.00 | 0.00 | 0.00 | 84 | 1001.8 |
| 20260505032520 | 49 | 34 | 1.0 | 1.0 | 0.00 | 0.00 | 0.00 | 84 | 1001.7 |
| 20260505032016 | 49 | 20 | 1.0 | 1.0 | 0.00 | 0.00 | 0.00 | 83 | 1001.8 |
| 20260505031514 | 49 | 17 | 1.0 | 2.0 | 0.00 | 0.00 | 0.00 | 83 | 1001.8 |
| 20260505031010 | 49 | 42 | 1.0 | 1.0 | 0.00 | 0.00 | 0.00 | 82 | 1001.8 |
| 20260505030507 | 49 | 66 | 0.0 | 0.0 | 0.00 | 0.00 | 0.00 | 82 | 1001.8 |
| 20260505030002 | 50 | 73 | 0.0 | 1.0 | 0.00 | 0.00 | 0.00 | 82 | 1001.8 |
| 20260505025459 | 50 | 28 | 1.0 | 1.0 | 0.00 | 0.00 | 0.00 | 81 | 1002.2 |
| 20260505024958 | 50 | 22 | 1.0 | 1.0 | 0.00 | 0.00 | 0.00 | 81 | 1001.8 |
| 20260505024454 | 50 | 7 | 1.0 | 1.0 | 0.00 | 0.00 | 0.00 | 80 | 1001.8 |
| 20260505023952 | 51 | 153 | 2.0 | 2.0 | 0.00 | 0.00 | 0.00 | 79 | 1001.6 |
| 20260505023448 | 51 | 33 | 2.0 | 2.0 | 0.00 | 0.00 | 0.00 | 79 | 1001.8 |
| 20260505022946 | 51 | 33 | 1.0 | 1.0 | 0.00 | 0.00 | 0.00 | 78 | 1002.0 |
| 20260505022443 | 51 | 114 | 1.0 | 1.0 | 0.00 | 0.00 | 0.00 | 77 | 1002.0 |
| 20260505021941 | 51 | 258 | 2.0 | 2.0 | 0.00 | 0.00 | 0.00 | 78 | 1002.0 |
| 20260505021437 | 51 | 10 | 1.0 | 1.0 | 0.00 | 0.00 | 0.00 | 78 | 1001.8 |
| 20260505020933 | 52 | 26 | 0.0 | 1.0 | 0.00 | 0.00 | 0.00 | 78 | 1001.7 |
| 20260505020428 | 52 | 26 | 1.0 | 1.0 | 0.00 | 0.00 | 0.00 | 77 | 1001.7 |
| 20260505015925 | 51 | 56 | 1.0 | 1.0 | 0.00 | 0.00 | 0.00 | 80 | 1001.8 |
| 20260505015422 | 51 | 58 | 0.0 | 0.0 | 0.00 | 0.00 | 0.00 | 79 | 1001.5 |
| 20260505014920 | 52 | 58 | 0.0 | 0.0 | 0.00 | 0.00 | 0.00 | 79 | 1001.7 |
| 20260505014416 | 52 | 58 | 0.0 | 0.0 | 0.00 | 0.00 | 0.00 | 80 | 1001.7 |
| 20260505013913 | 52 | 58 | 0.0 | 0.0 | 0.00 | 0.00 | 0.00 | 78 | 1001.7 |
| 20260505013410 | 52 | 58 | 0.0 | 0.0 | 0.00 | 0.00 | 0.00 | 79 | 1001.5 |
| 20260505012908 | 52 | 59 | 0.0 | 0.0 | 0.00 | 0.00 | 0.00 | 79 | 1001.5 |
| 20260505012406 | 52 | 59 | 0.0 | 0.0 | 0.00 | 0.00 | 0.00 | 78 | 1001.3 |
| 20260505011902 | 52 | 58 | 1.0 | 1.0 | 0.00 | 0.00 | 0.00 | 78 | 1001.5 |
| 20260505011359 | 53 | 59 | 0.0 | 0.0 | 0.00 | 0.00 | 0.00 | 77 | 1001.2 |
| 20260505010855 | 53 | 59 | 0.0 | 0.0 | 0.00 | 0.00 | 0.00 | 76 | 1001.1 |
| 20260505010351 | 53 | 58 | 0.0 | 0.0 | 0.00 | 0.00 | 0.00 | 74 | 1001.4 |
| 20260505005847 | 54 | 58 | 0.0 | 0.0 | 0.00 | 0.00 | 0.00 | 73 | 1001.2 |
| 20260505005344 | 55 | 58 | 0.0 | 0.0 | 0.00 | 0.00 | 0.00 | 72 | 1001.2 |
| 20260505004842 | 55 | 58 | 0.0 | 0.0 | 0.00 | 0.00 | 0.00 | 70 | 1001.3 |
| 20260505004338 | 56 | 59 | 0.0 | 1.0 | 0.00 | 0.00 | 0.00 | 69 | 1001.1 |
| 20260505003835 | 56 | 61 | 0.0 | 0.0 | 0.00 | 0.00 | 0.00 | 68 | 1001.1 |
| 20260505003333 | 57 | 59 | 0.0 | 0.0 | 0.00 | 0.00 | 0.00 | 67 | 1000.7 |
| 20260505002828 | 57 | 53 | 0.0 | 0.0 | 0.00 | 0.00 | 0.00 | 67 | 1000.8 |
| 20260505002325 | 57 | 57 | 1.0 | 1.0 | 0.00 | 0.00 | 0.00 | 67 | 1000.7 |
| 20260505001824 | 58 | 76 | 0.0 | 0.0 | 0.00 | 0.00 | 0.00 | 66 | 1000.7 |
| 20260505001320 | 58 | 93 | 0.0 | 0.0 | 0.00 | 0.00 | 0.00 | 65 | 1000.3 |
| 20260505000818 | 59 | 358 | 0.0 | 1.0 | 0.00 | 0.00 | 0.00 | 64 | 1000.5 |
| 20260505000315 | 59 | 285 | 3.0 | 4.0 | 0.00 | 0.00 | 0.00 | 63 | 1000.5 |
| 20260504235812 | 60 | 102 | 1.0 | 1.0 | 0.00 | 0.00 | 0.00 | 62 | 1000.4 |
| 20260504235309 | 59 | 19 | 1.0 | 1.0 | 0.00 | 0.00 | 0.00 | 61 | 1000.2 |
| 20260504234805 | 59 | 54 | 0.0 | 0.0 | 0.00 | 0.00 | 0.00 | 61 | 1000.2 |
| 20260504234303 | 59 | 54 | 0.0 | 1.0 | 0.00 | 0.00 | 0.00 | 60 | 1000.1 |
| 20260504233759 | 60 | 53 | 1.0 | 1.0 | 0.00 | 0.00 | 0.00 | 60 | 1000.0 |
| 20260504233255 | 60 | 93 | 2.0 | 3.0 | 0.00 | 0.00 | 0.00 | 58 | 1000.0 |
| 20260504232752 | 61 | 59 | 0.0 | 0.0 | 0.00 | 0.00 | 0.00 | 55 | 1000.3 |
| 20260504232249 | 61 | 59 | 0.0 | 0.0 | 0.00 | 0.00 | 0.00 | 55 | 999.8 |
| 20260504231746 | 61 | 59 | 1.0 | 1.0 | 0.00 | 0.00 | 0.00 | 54 | 999.9 |
| 20260504231242 | 62 | 59 | 0.0 | 0.0 | 0.00 | 0.00 | 0.00 | 54 | 999.6 |
| 20260504230738 | 62 | 59 | 0.0 | 1.0 | 0.00 | 0.00 | 0.00 | 53 | 999.7 |
| 20260504230237 | 63 | 59 | 1.0 | 1.0 | 0.00 | 0.00 | 0.00 | 51 | 999.6 |
| 20260504225735 | 63 | 60 | 1.0 | 1.0 | 0.00 | 0.00 | 0.00 | 54 | 999.7 |
| 20260504225231 | 64 | 59 | 0.0 | 0.0 | 0.00 | 0.00 | 0.00 | 50 | 999.7 |
| 20260504224729 | 64 | 59 | 0.0 | 1.0 | 0.00 | 0.00 | 0.00 | 50 | 999.6 |
| 20260504224226 | 64 | 59 | 0.0 | 0.0 | 0.00 | 0.00 | 0.00 | 49 | 999.5 |
| 20260504223722 | 64 | 59 | 1.0 | 1.0 | 0.00 | 0.00 | 0.00 | 51 | 999.6 |
| 20260504223218 | 66 | 59 | 0.0 | 1.0 | 0.00 | 0.00 | 0.00 | 50 | 999.3 |
| 20260504222715 | 67 | 357 | 1.0 | 2.0 | 0.00 | 0.00 | 0.00 | 44 | 999.7 |
| 20260504222212 | 67 | 275 | 2.0 | 2.0 | 0.00 | 0.00 | 0.00 | 44 | 999.5 |
| 20260504221709 | 68 | 286 | 2.0 | 3.0 | 0.00 | 0.00 | 0.00 | 42 | 999.6 |
| 20260504221206 | 67 | 18 | 1.0 | 1.0 | 0.00 | 0.00 | 0.00 | 43 | 999.6 |
| 20260504220702 | 68 | 358 | 2.0 | 2.0 | 0.00 | 0.00 | 0.00 | 43 | 999.5 |
| 20260504220200 | 68 | 17 | 1.0 | 1.0 | 0.00 | 0.00 | 0.00 | 42 | 999.6 |
| 20260504215656 | 68 | 300 | 2.0 | 3.0 | 0.00 | 0.00 | 0.00 | 43 | 999.6 |
| 20260504215154 | 67 | 301 | 3.0 | 3.0 | 0.00 | 0.00 | 0.00 | 43 | 999.5 |
| 20260504214649 | 67 | 298 | 2.0 | 2.0 | 0.00 | 0.00 | 0.00 | 43 | 999.4 |
| 20260504214146 | 67 | 307 | 3.0 | 3.0 | 0.00 | 0.00 | 0.00 | 43 | 999.6 |
| 20260504213643 | 67 | 296 | 4.0 | 4.0 | 0.00 | 0.00 | 0.00 | 44 | 999.6 |
| 20260504213139 | 66 | 291 | 4.0 | 6.0 | 0.00 | 0.00 | 0.00 | 44 | 999.7 |
| 20260504212636 | 67 | 325 | 3.0 | 3.0 | 0.00 | 0.00 | 0.00 | 45 | 999.5 |
| 20260504212133 | 67 | 288 | 6.0 | 7.0 | 0.00 | 0.00 | 0.00 | 45 | 999.5 |
| 20260504211630 | 66 | 314 | 3.0 | 3.0 | 0.00 | 0.00 | 0.00 | 46 | 999.5 |
| 20260504211126 | 66 | 347 | 2.0 | 2.0 | 0.00 | 0.00 | 0.00 | 46 | 999.8 |
| 20260504210624 | 65 | 312 | 4.0 | 6.0 | 0.00 | 0.00 | 0.00 | 46 | 999.7 |
| 20260504210120 | 65 | 346 | 2.0 | 2.0 | 0.00 | 0.00 | 0.00 | 47 | 999.8 |
| 20260504205618 | 64 | 218 | 3.0 | 4.0 | 0.00 | 0.00 | 0.00 | 49 | 999.7 |
| 20260504205116 | 64 | 52 | 1.0 | 1.0 | 0.00 | 0.00 | 0.00 | 50 | 999.6 |
| 20260504204614 | 64 | 271 | 3.0 | 3.0 | 0.00 | 0.00 | 0.00 | 48 | 999.5 |
| 20260504204112 | 64 | 318 | 2.0 | 3.0 | 0.00 | 0.00 | 0.00 | 48 | 999.5 |
| 20260504203611 | 64 | 276 | 5.0 | 6.0 | 0.00 | 0.00 | 0.00 | 48 | 999.7 |
| 20260504203108 | 64 | 285 | 6.0 | 8.0 | 0.00 | 0.00 | 0.00 | 49 | 999.8 |
| 20260504202603 | 65 | 295 | 3.0 | 4.0 | 0.00 | 0.00 | 0.00 | 49 | 999.7 |
| 20260504202100 | 66 | 298 | 4.0 | 4.0 | 0.00 | 0.00 | 0.00 | 46 | 999.8 |
| 20260504201557 | 65 | 346 | 3.0 | 4.0 | 0.00 | 0.00 | 0.00 | 49 | 999.8 |
| 20260504201055 | 64 | 288 | 3.0 | 3.0 | 0.00 | 0.00 | 0.00 | 50 | 999.7 |
| 20260504200550 | 65 | 285 | 6.0 | 7.0 | 0.00 | 0.00 | 0.00 | 50 | 999.9 |
| 20260504200048 | 66 | 281 | 4.0 | 4.0 | 0.00 | 0.00 | 0.00 | 48 | 999.9 |
| 20260504195544 | 66 | 316 | 8.0 | 9.0 | 0.00 | 0.00 | 0.00 | 48 | 999.8 |
| 20260504195040 | 64 | 303 | 5.0 | 6.0 | 0.00 | 0.00 | 0.00 | 52 | 999.7 |
| 20260504194537 | 64 | 285 | 4.0 | 4.0 | 0.00 | 0.00 | 0.00 | 52 | 999.7 |
| 20260504194032 | 63 | 353 | 3.0 | 4.0 | 0.00 | 0.00 | 0.00 | 54 | 1000.0 |
| 20260504193529 | 61 | 277 | 3.0 | 3.0 | 0.00 | 0.00 | 0.00 | 57 | 1000.1 |
| 20260504193028 | 61 | 289 | 3.0 | 3.0 | 0.00 | 0.00 | 0.00 | 59 | 1000.1 |
| 20260504192526 | 61 | 258 | 2.0 | 2.0 | 0.00 | 0.00 | 0.00 | 59 | 1000.1 |
| 20260504192024 | 60 | 37 | 1.0 | 1.0 | 0.00 | 0.00 | 0.00 | 61 | 1000.2 |
| 20260504191521 | 60 | 294 | 4.0 | 4.0 | 0.00 | 0.00 | 0.00 | 61 | 1000.2 |
| 20260504191017 | 60 | 335 | 2.0 | 2.0 | 0.00 | 0.00 | 0.00 | 63 | 1000.2 |
| 20260504190513 | 61 | 344 | 2.0 | 2.0 | 0.00 | 0.00 | 0.00 | 61 | 1000.2 |
| 20260504190010 | 61 | 323 | 2.0 | 3.0 | 0.00 | 0.00 | 0.00 | 65 | 1000.3 |
| 20260504185507 | 61 | 311 | 3.0 | 4.0 | 0.00 | 0.00 | 0.00 | 61 | 1000.2 |
| 20260504185004 | 60 | 0 | 2.0 | 2.0 | 0.00 | 0.00 | 0.00 | 64 | 1000.3 |
| 20260504184459 | 60 | 0 | 2.0 | 2.0 | 0.00 | 0.00 | 0.00 | 64 | 1000.3 |
| 20260504183954 | 59 | 282 | 2.0 | 3.0 | 0.00 | 0.00 | 0.00 | 67 | 1000.4 |
| 20260504183452 | 58 | 341 | 2.0 | 2.0 | 0.00 | 0.00 | 0.00 | 71 | 1000.5 |
| 20260504182950 | 57 | 10 | 2.0 | 2.0 | 0.00 | 0.00 | 0.00 | 74 | 1000.6 |
| 20260504182446 | 56 | 44 | 1.0 | 2.0 | 0.00 | 0.00 | 0.00 | 74 | 1000.4 |
| 20260504181944 | 56 | 43 | 1.0 | 1.0 | 0.00 | 0.00 | 0.00 | 74 | 1000.4 |
| 20260504181441 | 56 | 358 | 1.0 | 2.0 | 0.00 | 0.00 | 0.00 | 75 | 1000.4 |
| 20260504180939 | 56 | 37 | 0.0 | 1.0 | 0.00 | 0.00 | 0.00 | 73 | 1000.2 |
| 20260504180438 | 56 | 308 | 2.0 | 2.0 | 0.00 | 0.00 | 0.00 | 75 | 1000.4 |
| 20260504175936 | 56 | 58 | 0.0 | 1.0 | 0.00 | 0.00 | 0.00 | 77 | 1000.3 |
| 20260504175432 | 56 | 261 | 2.0 | 3.0 | 0.00 | 0.00 | 0.00 | 77 | 1000.3 |
| 20260504174930 | 55 | 32 | 1.0 | 1.0 | 0.00 | 0.00 | 0.00 | 77 | 1000.5 |
| 20260504174427 | 56 | 85 | 1.0 | 1.0 | 0.00 | 0.00 | 0.00 | 77 | 1000.5 |
| 20260504173925 | 56 | 33 | 1.0 | 1.0 | 0.00 | 0.00 | 0.00 | 77 | 1000.7 |
| 20260504173421 | 56 | 50 | 1.0 | 1.0 | 0.00 | 0.00 | 0.00 | 77 | 1000.5 |
| 20260504172919 | 57 | 343 | 3.0 | 3.0 | 0.00 | 0.00 | 0.00 | 71 | 1000.5 |
| 20260504172415 | 58 | 297 | 5.0 | 6.0 | 0.00 | 0.00 | 0.00 | 64 | 1000.6 |
| 20260504171911 | 59 | 294 | 6.0 | 7.0 | 0.00 | 0.00 | 0.00 | 59 | 1000.1 |
| 20260504171409 | 60 | 288 | 7.0 | 8.0 | 0.00 | 0.00 | 0.00 | 53 | 1000.2 |
| 20260504170905 | 61 | 291 | 2.0 | 7.0 | 0.00 | 0.00 | 0.00 | 51 | 999.9 |
| 20260504170402 | 61 | 301 | 7.0 | 9.0 | 0.00 | 0.00 | 0.00 | 48 | 999.6 |
| 20260504160320 | 61 | 259 | 6.0 | 6.0 | 0.00 | 0.00 | 0.00 | 52 | 999.3 |